• Join FlightAware (Why Join?)
  • Login
  • US Flag 
05:14AM EDT


 

Airport Tracker/Info


-or-


 

Live Flight TrackerFlight Track Log ✈ N541JD ✈ 26-May-2014 ✈ KNEW - KEKY

Flight Track Log - Related Links

Times and Time Zones

All times are in EDT time to prevent confusion due to time zone crossing. See the N541JD flight status page for this flight to view local times or setup timezone preferences in your user account.

Time Position Orientation Groundspeed Altitude Reporting Facility
EDT Latitude Longitude Course Direction KTS MPH feet Rate Location/Type
06:59PM 30.0256 -90.0311 161° South 100 115 600  Level Houston Center
07:00PM 29.9981 -90.0200 161° South 98 113 1,900 840 Climbing Houston Center
07:01PM 30.0114 -90.0072 40° Northeast 167 192 2,200 720 Climbing Houston Center
07:01PM 30.0247 -90.0094 352° North 140 161 2,600 1,140 Climbing Houston Center
07:02PM 30.0458 -90.0117 355° North 139 160 3,400 1,080 Climbing Houston Center
07:02PM 30.0583 -90.0128 356° North 121 139 3,700 960 Climbing Houston Center
07:03PM 30.0778 -90.0106 North 125 144 4,400 960 Climbing Houston Center
07:03PM 30.0872 -90.0019 38° Northeast 112 129 4,700 960 Climbing Houston Center
07:04PM 30.1061 -89.9922 24° Northeast 120 138 5,400 960 Climbing Houston Center
07:04PM 30.1200 -89.9836 28° Northeast 113 130 5,800 960 Climbing Houston Center
07:05PM 30.1403 -89.9717 27° Northeast 119 137 6,400 900 Climbing Houston Center
07:05PM 30.1489 -89.9681 20° North 113 130 6,700 540 Climbing Houston Center
07:06PM 30.1686 -89.9556 29° Northeast 116 133 7,000 240 Climbing Houston Center
07:06PM 30.1797 -89.9500 23° Northeast 129 148 7,000  Level Houston Center
07:07PM 30.2075 -89.9333 27° Northeast 146 168 7,000  Level Houston Center
07:07PM 30.2206 -89.9264 25° Northeast 176 203 7,000  Level Houston Center
07:08PM 30.2511 -89.9089 26° Northeast 168 193 7,000  Level Houston Center
07:09PM 30.2953 -89.8836 26° Northeast 173 199 7,000  Level Houston Center
07:09PM 30.3083 -89.8758 27° Northeast 176 203 7,000  Level Houston Center
07:10PM 30.3403 -89.8581 26° Northeast 174 200 7,000  Level Houston Center
07:11PM 30.3869 -89.8311 26° Northeast 177 204 7,000  Level Houston Center
07:12PM 30.4325 -89.8056 26° Northeast 177 204 7,000  Level Houston Center
07:13PM 30.4767 -89.7797 27° Northeast 177 204 7,000  Level Houston Center
07:14PM 30.5317 -89.7481 26° Northeast 178 205 7,000  Level Houston Center
07:15PM 30.5767 -89.7228 26° Northeast 178 205 7,000  Level Houston Center
07:16PM 30.6236 -89.7028 20° North 178 205 7,000  Level Houston Center
07:17PM 30.6703 -89.6819 21° North 178 205 7,000  Level Houston Center
07:18PM 30.7161 -89.6614 21° North 178 205 7,000  Level Houston Center
07:19PM 30.7625 -89.6403 21° North 178 205 7,000  Level Houston Center
07:20PM 30.8189 -89.6147 21° North 178 205 7,000  Level Houston Center
07:21PM 30.8661 -89.5942 20° North 178 205 7,000  Level Houston Center
07:22PM 30.9131 -89.5736 21° North 178 205 7,000  Level Houston Center
07:23PM 30.9594 -89.5506 23° Northeast 179 206 7,000  Level Houston Center
07:24PM 31.0053 -89.5297 21° North 179 206 7,000  Level Houston Center
07:26PM 31.0519 -89.5086 21° North 179 206 7,000  Level Houston Center
07:27PM 31.0989 -89.4875 21° North 179 206 7,000  Level Houston Center
07:28PM 31.1544 -89.4625 21° North 179 206 7,000  Level Houston Center
07:29PM 31.2011 -89.4408 22° Northeast 179 206 7,000  Level Houston Center
07:30PM 31.2469 -89.4178 23° Northeast 179 206 7,000  Level Houston Center
07:31PM 31.2928 -89.3947 23° Northeast 179 206 7,000  Level Houston Center
07:32PM 31.3386 -89.3725 22° Northeast 179 206 7,000  Level Houston Center
07:33PM 31.3850 -89.3522 20° North 179 206 7,000  Level Houston Center
07:34PM 31.4292 -89.3289 24° Northeast 178 205 7,000  Level Houston Center
07:35PM 31.4736 -89.2853 40° Northeast 176 203 7,000  Level Houston Center
07:36PM 31.5133 -89.2514 36° Northeast 176 203 7,000  Level Houston Center
07:37PM 31.5511 -89.2153 39° Northeast 176 203 7,100  Climbing Houston Center
07:38PM 31.5903 -89.1806 37° Northeast 176 203 7,100  Level Houston Center
07:39PM 31.6286 -89.1444 39° Northeast 176 203 7,100  Level Houston Center
07:40PM 31.6597 -89.1161 38° Northeast 175 201 7,100 -60 Level Memphis Center
07:41PM 31.7053 -89.0733 39° Northeast 175 201 7,000 -60 Descending Memphis Center
07:42PM 31.7447 -89.0389 37° Northeast 175 201 7,000  Level Memphis Center
07:43PM 31.7831 -89.0019 39° Northeast 175 201 7,000  Level Memphis Center
07:44PM 31.8214 -88.9672 38° Northeast 175 201 7,000  Level Memphis Center
07:45PM 31.8600 -88.9308 39° Northeast 175 201 7,000  Level Memphis Center
07:46PM 31.9006 -88.8936 38° Northeast 177 204 7,000  Level Memphis Center
07:47PM 31.9472 -88.8517 37° Northeast 178 205 7,000  Level Memphis Center
07:48PM 31.9850 -88.8156 39° Northeast 178 205 7,000  Level Memphis Center
07:49PM 32.0206 -88.7700 47° Northeast 178 205 7,000  Level Memphis Center
07:50PM 32.0631 -88.7428 28° Northeast 178 205 7,000  Level Memphis Center
07:51PM 32.1019 -88.7069 38° Northeast 178 205 7,000  Level Memphis Center
07:52PM 32.1428 -88.6697 38° Northeast 179 206 7,000  Level Memphis Center
07:53PM 32.1833 -88.6211 45° Northeast 187 215 7,000  Level Memphis Center
07:54PM 32.2283 -88.5889 31° Northeast 179 206 7,000  Level Memphis Center
07:55PM 32.2667 -88.5519 39° Northeast 179 206 7,000  Level Memphis Center
07:56PM 32.3075 -88.5147 38° Northeast 179 206 7,100  Climbing Memphis Center
07:57PM 32.3439 -88.4719 45° Northeast 184 212 7,000 -120 Descending Memphis Center
07:57PM 32.3517 -88.4728 355° North 181 208 7,000  Level Memphis Center
07:58PM 32.3881 -88.4283 46° Northeast 187 215 7,000  Level Memphis Center
07:59PM 32.4228 -88.3800 50° Northeast 187 215 7,100  Climbing Memphis Center
08:00PM 32.4572 -88.3347 48° Northeast 186 214 7,000  Descending Memphis Center
08:01PM 32.4847 -88.2936 52° Northeast 183 211 7,100 60 Climbing Memphis Center
08:01PM 32.4914 -88.2900 25° Northeast 186 214 7,100 -120 Level Memphis Center
08:02PM 32.5236 -88.2442 50° Northeast 186 214 7,000  Descending Memphis Center
08:03PM 32.5617 -88.1928 49° Northeast 185 213 7,100 60 Climbing Memphis Center
08:04PM 32.5958 -88.1456 49° Northeast 184 212 7,200  Climbing Memphis Center
08:05PM 32.6250 -88.1144 42° Northeast 187 215 7,100  Descending Memphis Center
08:06PM 32.6283 -88.1008 74° East 184 212 7,200 60 Climbing Memphis Center
08:07PM 32.6600 -88.0567 50° Northeast 183 211 7,200 -60 Level Memphis Center
08:08PM 32.6925 -88.0125 49° Northeast 181 208 7,100 -60 Descending Memphis Center
08:09PM 32.7325 -87.9567 50° Northeast 181 208 7,100  Level Memphis Center
08:10PM 32.7653 -87.9119 49° Northeast 181 208 7,100  Level Memphis Center
08:11PM 32.7956 -87.8714 48° Northeast 182 209 7,100  Level Memphis Center
08:12PM 32.8292 -87.8250 49° Northeast 182 209 7,100  Level Memphis Center
08:13PM 32.8869 -87.7419 50° Northeast 167 192 7,100  Level Atlanta Center
08:14PM 32.9108 -87.7131 45° Northeast 184 212 7,100  Level Atlanta Center
08:14PM 32.9175 -87.6986 61° Northeast 172 198 7,100  Level Atlanta Center
08:15PM 32.9503 -87.6506 51° Northeast 177 204 7,100  Level Atlanta Center
08:16PM 32.9681 -87.6314 42° Northeast 182 209 7,100  Level Memphis Center
08:17PM 33.0006 -87.5853 50° Northeast 182 209 7,100  Level Memphis Center
08:18PM 33.0353 -87.5383 49° Northeast 183 211 7,100  Level Memphis Center
08:19PM 33.0747 -87.4811 51° Northeast 183 211 7,100 -60 Level Memphis Center
08:21PM 33.1392 -87.3878 50° Northeast 188 216 7,000 -120 Descending Atlanta Center
08:21PM 33.1567 -87.3661 46° Northeast 182 209 6,900 -420 Descending Atlanta Center
08:22PM 33.1761 -87.3422 46° Northeast 193 222 6,600 -540 Descending Atlanta Center
08:22PM 33.1914 -87.3153 56° Northeast 182 209 6,400 -540 Descending Atlanta Center
08:23PM 33.2108 -87.2914 46° Northeast 195 224 6,100 -540 Descending Atlanta Center
08:23PM 33.2261 -87.2644 56° Northeast 188 216 5,900 -600 Descending Atlanta Center
08:24PM 33.2414 -87.2403 53° Northeast 197 227 5,500 -720 Descending Atlanta Center
08:25PM 33.2533 -87.1811 76° East 192 221 4,800 -900 Descending Atlanta Center
08:26PM 33.2653 -87.1169 77° East 189 217 3,800 -780 Descending Atlanta Center
08:27PM 33.2750 -87.0603 78° East 177 204 3,300 -540 Descending Atlanta Center